Calgary Springbank,

10:24 PM MST on November 18, 2017 (GMT -0700)
Calgary Springbank

Weather History for CYBW - September, 2014

Change the Weather History Date:

Saturday, September 13, 2014

  Actual Average Record
Temperature  
Mean Temperature 42 °F -  
Max Temperature 51 °F 54 °F 78 °F (2013)
Min Temperature 33 °F 31 °F 26 °F (2007)
Degree Days  
Heating Degree Days 23    
Moisture  
Dew Point 35 °F    
Average Humidity 83    
Maximum Humidity 100    
Minimum Humidity 58    
Precipitation  
Precipitation 0.00 in - - ()
Sea Level Pressure  
Sea Level Pressure 30.28 in    
Wind  
Wind Speed 4 mph ()    
Max Wind Speed 10 mph    
Max Gust Speed -    
Visibility 9.0 miles    
Events      
Averages and records for this station are not official NWS values.
T = Trace of Precipitation, MM = Missing Value Source: Averaged Metar Reports

Daily Weather History Graph

Daily Weather History Graph

Search for Another Location

Airport or City:

Trip Planner

Search our weather history database for the weather conditions in past years. The results will help you decide how hot, cold, wet, or windy it might be!

Date:

Astronomy

Sep. 13, 2014 Rise Set
Actual Time 7:09 AM MDT 7:55 PM MDT
Civil Twilight 6:36 AM MDT 8:29 PM MDT
Nautical Twilight 5:56 AM MDT 9:09 PM MDT
Astronomical Twilight 5:13 AM MDT 9:51 PM MDT
Moon 10:28 PM MDT (9/13) 12:55 PM MDT (9/13)
Length of Visible Light 13h 53m
Length of Day
12h 46m
Waning Gibbous, 73% of the Moon is Illuminated
Sep 13
Waning Gibbous
Sep 15
Last Quarter
Sep 24
New
Oct 1
First Quarter
Oct 8
Full

Hourly Weather History & Observations

Time (MDT) Temp. Windchill Dew Point Humidity Pressure Visibility Wind Dir Wind Speed Gust Speed Precip Events Conditions
12:00 AM 35.6 °F 30.7 °F 33.8 °F 93% 30.35 in 9.0 mi NW 5.8 mph - N/A   Overcast
1:00 AM 33.8 °F 27.7 °F 32.0 °F 93% 30.34 in 9.0 mi WNW 6.9 mph - N/A   Scattered Clouds
2:00 AM 37.4 °F 34.9 °F 33.8 °F 87% 30.34 in 9.0 mi NNW 3.5 mph - N/A   Overcast
3:00 AM 35.6 °F 30.7 °F 33.8 °F 93% 30.35 in 9.0 mi NW 5.8 mph - N/A   Overcast
4:00 AM 35.6 °F 31.7 °F 33.8 °F 93% 30.35 in 9.0 mi North 4.6 mph - N/A   Overcast
6:00 AM 35.6 °F 30.7 °F 33.8 °F 93% 30.35 in 9.0 mi NW 5.8 mph - N/A   Overcast
6:11 AM 35.6 °F 31.7 °F 33.8 °F 93% 30.35 in 9.0 mi NW 4.6 mph - N/A   Overcast
6:19 AM 35.6 °F - 33.8 °F 93% 30.35 in 9.0 mi NW 2.3 mph - N/A   Overcast
6:21 AM 35.6 °F - 33.8 °F 93% 30.35 in 9.0 mi NW 2.3 mph - N/A   Overcast
6:57 AM 33.8 °F 30.8 °F 33.8 °F 100% 30.35 in 9.0 mi NW 3.5 mph - N/A   Overcast
7:00 AM 33.8 °F 30.8 °F 33.8 °F 100% 30.35 in 9.0 mi NW 3.5 mph - N/A   Overcast
8:00 AM 35.6 °F - 33.8 °F 93% 30.36 in 9.0 mi Variable 2.3 mph - N/A   Overcast
9:00 AM 37.4 °F - 35.6 °F 93% 30.35 in 9.0 mi Calm Calm - N/A   Mostly Cloudy
9:15 AM 37.4 °F - 35.6 °F 93% 30.35 in 9.0 mi Variable 2.3 mph - N/A   Mostly Cloudy
9:48 AM 37.4 °F - 35.6 °F 93% 30.35 in 9.0 mi Calm Calm - N/A   Overcast
11:00 AM 41.0 °F - 37.4 °F 87% 30.32 in 9.0 mi Calm Calm - N/A   Overcast
12:00 PM 42.8 °F 41.1 °F 37.4 °F 81% 30.31 in 9.0 mi WSW 3.5 mph - N/A   Partly Cloudy
1:00 PM 46.4 °F - 35.6 °F 66% 30.28 in 9.0 mi Variable 2.3 mph - N/A   Scattered Clouds
2:00 PM 48.2 °F - 35.6 °F 62% 30.24 in 9.0 mi SE 10.4 mph - N/A   Clear
3:00 PM 50.0 °F - 35.6 °F 58% 30.22 in 9.0 mi SSE 8.1 mph - N/A   Clear
4:00 PM 51.8 °F - 37.4 °F 58% 30.19 in 9.0 mi SSE 9.2 mph - N/A   Clear
5:00 PM 51.8 °F - 37.4 °F 58% 30.18 in 9.0 mi SE 9.2 mph - N/A   Clear
6:00 PM 50.0 °F - 39.2 °F 66% 30.17 in 9.0 mi SSE 9.2 mph - N/A   Partly Cloudy
7:00 PM 50.0 °F - 37.4 °F 62% 30.15 in 9.0 mi SSE 10.4 mph - N/A   Partly Cloudy
8:00 PM 44.6 °F 40.2 °F 35.6 °F 71% 30.16 in 9.0 mi SSE 8.1 mph - N/A   Clear
9:00 PM 41.0 °F 36.4 °F 35.6 °F 81% 30.16 in 9.0 mi SSE 6.9 mph - N/A   Overcast
10:00 PM 37.4 °F 33.8 °F 33.8 °F 87% 30.16 in 9.0 mi SSE 4.6 mph - N/A   Partly Cloudy
11:00 PM 37.4 °F 33.8 °F 33.8 °F 87% 30.14 in 9.0 mi SSE 4.6 mph - N/A   Mostly Cloudy